Weather History for OTBD - May, 2013

Change the Weather History Date:

Friday, May 24, 2013

  Actual Average Record
Temperature  
Mean Temperature 93 °F -  
Max Temperature 102 °F 105 °F 114 °F (2002)
Min Temperature 84 °F 81 °F 71 °F (1999)
Cooling Degree Days 28    
Growing Degree Days 43 (Base 50)    
Moisture  
Dew Point 49 °F    
Average Humidity 24    
Maximum Humidity 45    
Minimum Humidity 6    
Precipitation  
Precipitation 0.00 in 0.00 in - ()
Sea Level Pressure  
Sea Level Pressure 29.68 in    
Wind  
Wind Speed 11 mph ()    
Max Wind Speed 23 mph    
Max Gust Speed 37 mph    
Visibility 7.2 miles    
Events      
Averages and records for this station are not official NWS values.
T = Trace of Precipitation, MM = Missing Value Source: Averaged Metar Reports

Daily Weather History Graph

Daily Weather History Graph

Search for Another Location

Airport or City:

Trip Planner

Search our weather history database for the weather conditions in past years. The results will help you decide how hot, cold, wet, or windy it might be!

Date:

Astronomy

May. 24, 2013 Rise Set
Actual Time 4:45 AM AST 6:16 PM AST
Civil Twilight 4:20 AM AST 6:41 PM AST
Nautical Twilight 3:50 AM AST 7:11 PM AST
Astronomical Twilight 3:18 AM AST 7:42 PM AST
Moon 5:35 PM AST (5/24) 3:51 AM AST (5/24)
Length of Visible Light 14h 21m
Length of Day
13h 30m
Waxing Gibbous, 99% of the Moon is Illuminated
May 24
Waxing Gibbous
May 25
Full
May 31
Last Quarter
Jun 8
New
Jun 16
First Quarter

Hourly Weather History & Observations

Time (AST) Temp. Heat Index Dew Point Humidity Pressure Visibility Wind Dir Wind Speed Gust Speed Precip Events Conditions
12:00 AM 87.8 °F 86.5 °F 57.2 °F 35% 29.74 in - West 5.8 mph - N/A   Clear
1:00 AM 86.0 °F 85.4 °F 59.0 °F 40% 29.71 in - West 9.2 mph - N/A   Clear
1:30 AM 86.0 °F 86.1 °F 60.8 °F 43% 29.71 in - West 6.9 mph - N/A   Clear
2:00 AM 84.2 °F 84.4 °F 60.8 °F 45% 29.71 in - West 8.1 mph - N/A   Clear
2:30 AM 86.0 °F 85.4 °F 59.0 °F 40% 29.71 in - WNW 9.2 mph - N/A   Clear
3:00 AM 85 °F - 58 °F 30% 29.73 in 9 mi WNW 8.1 mph - -  
3:00 AM 86.0 °F 85.4 °F 59.0 °F 40% 29.71 in - WNW 8.1 mph - N/A   Clear
4:00 AM 86.0 °F 84.5 °F 55.4 °F 35% 29.71 in - West 9.2 mph - N/A   Clear
5:00 AM 84.2 °F 83.8 °F 59.0 °F 42% 29.74 in - West 8.1 mph - N/A   Clear
6:00 AM 84.2 °F 84.4 °F 60.8 °F 45% 29.74 in - West 6.9 mph - N/A   Clear
6:30 AM 86.0 °F 86.1 °F 60.8 °F 43% 29.74 in - West 9.2 mph - N/A   Clear
7:00 AM 86.0 °F 86.1 °F 60.8 °F 43% 29.74 in - West 8.1 mph - N/A   Clear
7:30 AM 89.6 °F 88.9 °F 59.0 °F 36% 29.74 in - WNW 10.4 mph - N/A   Clear
8:00 AM 91.4 °F 89.4 °F 55.4 °F 29% 29.74 in - WNW 11.5 mph - N/A   Clear
8:30 AM 93.2 °F 90.8 °F 53.6 °F 26% 29.74 in - WNW 13.8 mph 25.3 mph N/A   Clear
9:00 AM 96.8 °F - 50.0 °F 20% 29.71 in - NW 17.3 mph - N/A   Clear
9:30 AM 96.8 °F - 46.4 °F 18% 29.71 in - NW 17.3 mph 28.8 mph N/A   Clear
10:00 AM 98.6 °F - 46.4 °F 17% 29.71 in - NW 19.6 mph 31.1 mph N/A   Clear
10:30 AM 98.6 °F - 44.6 °F 16% 29.71 in - NW 18.4 mph 31.1 mph N/A   Clear
11:00 AM 98.6 °F - 41.0 °F 14% 29.71 in 5.6 mi NW 21.9 mph - N/A   Unknown
11:30 AM 100.4 °F - 41.0 °F 13% 29.71 in - NW 20.7 mph - N/A   Clear
12:00 PM 100.4 °F - 37.4 °F 11% 29.71 in - NW 18.4 mph 29.9 mph N/A   Clear
12:30 PM 102.2 °F - 37.4 °F 11% 29.68 in - NNW 21.9 mph 33.4 mph N/A   Clear
1:00 PM 102.2 °F - 39.2 °F 11% 29.68 in - NW 21.9 mph - N/A   Clear
1:30 PM 102.2 °F - 41.0 °F 12% 29.65 in - NNW 20.7 mph 33.4 mph N/A   Clear
2:00 PM 102.2 °F - 41.0 °F 12% 29.65 in - NW 21.9 mph 34.5 mph N/A   Clear
2:30 PM 102.2 °F - 39.2 °F 11% 29.65 in - NNW 23.0 mph 36.8 mph N/A   Clear
3:00 PM 101 °F - 39 °F 6% 29.66 in 7 mi NW 19.6 mph - -  
3:00 PM 100.4 °F - 39.2 °F 12% 29.65 in - NW 19.6 mph 33.4 mph N/A   Clear
3:30 PM 100.4 °F - 37.4 °F 11% 29.65 in - NW 20.7 mph 32.2 mph N/A   Clear
4:00 PM 100.4 °F - 39.2 °F 12% 29.65 in - NNW 19.6 mph 31.1 mph N/A   Clear
4:30 PM 100.4 °F - 39.2 °F 12% 29.62 in - NW 18.4 mph 29.9 mph N/A   Clear
5:00 PM 98.6 °F - 37.4 °F 12% 29.62 in - NNW 20.7 mph 34.5 mph N/A   Clear
5:30 PM 98.6 °F - 39.2 °F 13% 29.62 in - NNW 17.3 mph - N/A   Clear
6:00 PM 96.8 °F - 42.8 °F 16% 29.62 in - NNW 15.0 mph - N/A   Clear
6:30 PM 95.0 °F - 42.8 °F 16% 29.62 in - NNW 13.8 mph - N/A   Clear
7:00 PM 95.0 °F - 44.6 °F 18% 29.65 in - NNW 12.7 mph - N/A   Clear
8:00 PM 93.2 °F - 46.4 °F 20% 29.65 in - NW 12.7 mph - N/A   Clear
9:00 PM 91.4 °F - 48.2 °F 23% 29.65 in - NW 10.4 mph - N/A   Clear
9:30 PM 91.4 °F - 48.2 °F 23% 29.65 in - NW 10.4 mph - N/A   Clear
10:00 PM 91.4 °F - 50.0 °F 24% 29.65 in - NW 11.5 mph - N/A   Clear
10:30 PM 91.4 °F - 50.0 °F 24% 29.65 in - WNW 9.2 mph - N/A   Clear
11:00 PM 91.4 °F - 51.8 °F 26% 29.65 in - Variable 6.9 mph - N/A   Clear
11:30 PM 89.6 °F 87.7 °F 55.4 °F 31% 29.65 in - WSW 6.9 mph - N/A   Clear